Location: Burbank
(38.7788°N, 114.0429°W)
Time: 02:23:23
(UTC+00:00)

Tiros 1 despin weight - Pass Details

Date: 10 May 2026
Orbit: 554 x 591 km, 48.2° (Epoch: 6 June)

Event Time Altitude Azimuth Distance (km) Brightness Sun altitude
Rises 21:54:01 0° 286° (WNW) 2,731 ? 52.8°
Reaches altitude 10° 21:57:08 10° 261° (W) 1,837 ? 52.3°
Maximum altitude 21:59:25 14° 228° (SW) 1,574 ? 51.9°
Drops below altitude 10° 22:01:42 10° 195° (SSW) 1,840 ? 51.5°
Sets 22:04:50 0° 171° (S) 2,739 ? 50.9°
